ES8TJM-10 Weather Reports


time (UTC)temp
F
wind
direction
speed
knots
gust
knots
rain 1hr
in
rain 24hr
in
rain mn
in
humidity
%
barometer
mb
20260906051803 53 352 10.4 13.9 0.00 0.01 0.01 80 586.9
20260906051117 53 354 10.4 13.0 0.00 0.01 0.01 81 586.8
20260906050217 53 349 10.4 13.0 0.00 0.01 0.01 81 586.5
20260906045403 53 352 11.3 13.9 0.00 0.01 0.01 82 586.4
20260906044503 53 360 9.6 12.2 0.00 0.01 0.01 83 586.3
20260906043604 53 358 8.7 9.6 0.00 0.01 0.01 83 586.1
20260906042703 53 351 8.7 11.3 0.00 0.01 0.01 84 586.0
20260906042018 53 355 8.7 11.3 0.00 0.01 0.01 84 585.8
20260906040903 53 360 12.2 13.0 0.00 0.01 0.01 85 585.6
20260906040004 54 356 10.4 13.0 0.00 0.01 0.01 86 585.4
20260906035405 54 356 9.6 13.0 0.00 0.01 0.01 86 585.3
20260906034718 54 354 8.7 12.2 0.00 0.01 0.01 87 585.2
20260906033603 54 355 9.6 11.3 0.00 0.01 0.01 87 585.0
20260906032703 55 358 9.6 11.3 0.00 0.01 0.01 88 584.8
20260906031803 55 353 10.4 12.2 0.00 0.01 0.01 88 584.6
20260906031117 55 347 10.4 13.0 0.00 0.01 0.01 88 584.6
20260906030004 55 338 8.7 9.6 0.00 0.01 0.01 89 584.3
20260906025404 55 338 7.8 9.6 0.00 0.01 0.01 89 584.2
20260906024504 55 328 3.5 8.7 0.00 0.01 0.01 88 584.1
20260906023603 56 313 1.7 2.6 0.01 0.01 0.01 88 583.8
20260906022704 56 323 1.7 3.5 0.01 0.01 0.01 88 583.6
20260906021803 56 316 3.5 3.5 0.01 0.01 0.01 89 583.6
20260906020904 57 296 3.5 4.3 0.01 0.01 0.01 89 583.6
20260906020220 57 306 6.1 8.7 0.01 0.01 0.01 88 583.7
20260906015403 57 315 7.0 9.6 0.01 0.01 0.01 88 583.5
20260906014504 56 286 1.7 3.5 0.01 0.02 0.01 88 583.1
20260906013603 57 312 3.5 4.3 0.00 0.02 0.00 87 583.1
20260906012704 57 291 5.2 6.1 0.00 0.02 0.00 87 583.2
20260906011803 56 271 4.3 6.1 0.00 0.02 0.00 87 583.0
20260906011118 56 295 2.6 3.5 0.00 0.02 0.00 86 583.0
20260906010004 56 262 3.5 4.3 0.00 0.02 0.00 86 582.9
20260906005403 56 263 4.3 6.1 0.00 0.02 0.00 85 582.9
20260906004504 56 270 4.3 4.3 0.00 0.02 0.00 85 582.8
20260906003603 56 263 4.3 5.2 0.00 0.02 0.00 84 582.8
20260906002704 56 266 4.3 5.2 0.00 0.02 0.00 84 582.6
20260906001803 57 293 4.3 5.2 0.00 0.02 0.00 84 582.7
20260906000905 57 275 4.3 5.2 0.00 0.02 0.00 83 582.8
20260906000003 57 266 5.2 6.1 0.00 0.02 0.00 83 582.5
20260905235403 57 262 5.2 7.0 0.00 0.02 0.00 83 582.4
20260905234503 57 271 4.3 5.2 0.00 0.02 0.00 83 582.3
20260905233817 56 264 4.3 5.2 0.00 0.02 0.00 83 582.3
20260905232704 56 276 4.3 7.0 0.00 0.02 0.00 83 582.3
20260905232018 56 267 5.2 7.0 0.00 0.02 0.00 83 582.3
20260905230903 56 261 5.2 7.0 0.00 0.02 0.00 83 582.1
20260905230003 56 265 5.2 7.0 0.00 0.02 0.00 83 582.3
20260905225404 56 274 5.2 7.0 0.00 0.02 0.00 82 582.2
20260905224503 56 266 4.3 5.2 0.00 0.02 0.00 82 582.3
20260905223604 56 285 4.3 5.2 0.00 0.02 0.00 82 582.3
20260905222703 56 272 5.2 7.0 0.00 0.02 0.00 82 582.2
20260905221804 56 274 6.1 7.0 0.00 0.02 0.00 82 582.2
20260905220903 56 270 4.3 7.0 0.00 0.02 0.00 81 582.2
20260905220004 56 270 3.5 5.2 0.00 0.02 0.00 80 582.0
20260905215403 56 273 3.5 4.3 0.00 0.02 0.00 80 582.0
20260905214504 56 276 4.3 4.3 0.00 0.02 0.00 80 581.9
20260905213603 56 293 4.3 6.1 0.00 0.02 0.00 79 581.8
20260905212704 56 303 6.1 6.1 0.00 0.02 0.00 79 581.9
20260905212017 56 299 5.2 7.0 0.00 0.02 0.00 79 581.8
20260905210903 56 312 5.2 7.0 0.00 0.02 0.00 79 581.7
20260905210004 56 298 5.2 7.0 0.00 0.02 0.00 79 581.8
20260905205403 56 303 5.2 6.1 0.00 0.02 0.02 79 581.7
20260905204503 56 308 5.2 6.1 0.00 0.02 0.02 79 581.6
20260905203603 56 298 5.2 7.0 0.00 0.02 0.02 80 581.6
20260905202703 56 283 4.3 6.1 0.00 0.02 0.02 80 581.5
20260905201804 56 283 4.3 4.3 0.00 0.02 0.02 81 581.4
20260905200903 56 304 5.2 6.1 0.00 0.02 0.02 81 581.3
20260905200003 56 279 4.3 7.0 0.00 0.02 0.02 80 581.4
20260905195403 56 293 5.2 7.0 0.00 0.02 0.02 80 581.2
20260905194504 56 286 4.3 5.2 0.00 0.02 0.02 80 581.2
20260905193603 55 272 4.3 5.2 0.00 0.02 0.02 80 581.1
20260905192703 55 276 3.5 4.3 0.00 0.02 0.02 79 581.2
20260905191803 55 281 4.3 5.2 0.00 0.02 0.02 79 581.2
20260905190903 55 276 4.3 5.2 0.00 0.02 0.02 78 581.2
20260905190005 55 284 4.3 5.2 0.00 0.02 0.02 78 581.2
20260905185403 55 269 3.5 3.5 0.00 0.02 0.02 78 581.2
20260905184503 55 276 3.5 4.3 0.00 0.02 0.02 77 581.2
20260905183603 55 269 3.5 3.5 0.00 0.02 0.02 77 581.0
20260905182703 55 275 4.3 5.2 0.00 0.02 0.02 76 581.0
20260905181804 55 285 4.3 5.2 0.00 0.02 0.02 76 581.0
20260905180903 55 270 3.5 3.5 0.00 0.02 0.02 76 580.8
20260905180219 55 270 3.5 3.5 0.00 0.02 0.02 75 580.8
20260905175404 56 285 3.5 3.5 0.00 0.02 0.02 74 580.7
20260905174503 56 308 3.5 5.2 0.00 0.02 0.02 73 580.6
20260905173603 56 291 3.5 4.3 0.00 0.02 0.02 73 580.6
20260905172703 57 288 3.5 3.5 0.00 0.02 0.02 72 580.6
20260905171803 57 293 3.5 3.5 0.00 0.02 0.02 69 580.5
20260905170903 58 313 3.5 4.3 0.00 0.02 0.02 68 580.4
20260905170003 59 320 5.2 7.0 0.00 0.02 0.02 66 580.3
20260905165403 59 330 6.1 8.7 0.00 0.02 0.02 65 580.3
20260905164503 60 326 7.0 8.7 0.00 0.02 0.02 64 580.1
20260905163605 60 316 7.0 9.6 0.00 0.02 0.02 62 580.0
20260905162704 61 326 7.0 8.7 0.00 0.02 0.02 61 579.9
20260905161803 62 342 7.0 8.7 0.00 0.02 0.02 61 579.8
20260905160904 62 324 8.7 9.6 0.00 0.02 0.02 60 579.7
20260905160004 63 344 8.7 10.4 0.00 0.02 0.02 58 579.5
20260905155404 63 352 9.6 10.4 0.00 0.02 0.02 57 579.4
20260905154717 64 331 7.8 10.4 0.00 0.02 0.02 57 579.4
20260905153603 64 320 9.6 11.3 0.00 0.02 0.02 57 579.2
20260905152703 64 326 8.7 11.3 0.00 0.02 0.02 58 579.2
20260905152017 65 341 9.6 12.2 0.00 0.02 0.02 60 579.0
20260905150903 65 324 12.2 13.0 0.00 0.02 0.02 56 578.9
20260905150003 65 317 12.2 14.8 0.00 0.02 0.02 59 578.7
20260905145403 66 321 11.3 14.8 0.00 0.02 0.02 58 578.7
20260905144503 65 318 12.2 18.2 0.00 0.02 0.02 57 578.5
20260905143603 65 338 7.8 10.4 0.00 0.02 0.02 59 578.4
20260905142917 64 351 7.8 10.4 0.00 0.02 0.02 59 578.5
20260905141803 63 360 8.7 10.4 0.00 0.02 0.02 59 578.5
20260905140903 63 360 8.7 10.4 0.00 0.02 0.02 58 578.3
20260905140004 63 3 5.2 8.7 0.00 0.02 0.02 61 578.1
20260905135403 63 1 6.1 7.0 0.00 0.02 0.02 63 578.1
20260905134504 62 358 7.0 8.7 0.00 0.02 0.02 64 578.0
20260905133603 62 358 8.7 9.6 0.00 0.02 0.02 62 578.0
20260905132916 62 360 8.7 10.4 0.00 0.02 0.02 62 578.0
20260905131803 62 1 8.7 13.0 0.00 0.02 0.02 60 577.8
20260905130903 64 347 8.7 13.0 0.00 0.02 0.02 55 577.8
20260905130004 64 346 7.0 8.7 0.00 0.02 0.02 56 577.7
20260905125403 64 339 7.0 8.7 0.00 0.02 0.02 59 577.5
20260905124503 63 341 8.7 9.6 0.00 0.02 0.02 57 577.5
20260905123603 64 340 7.8 9.6 0.00 0.02 0.02 56 577.4
20260905122703 64 317 6.1 8.7 0.00 0.02 0.02 54 577.4
20260905121803 64 314 6.1 7.8 0.00 0.02 0.02 55 577.3
20260905120905 64 278 6.1 7.0 0.00 0.02 0.02 53 577.3
20260905120003 64 317 5.2 8.7 0.00 0.02 0.02 55 577.2
20260905115403 64 316 6.1 8.7 0.00 0.02 0.02 54 577.2
20260905114504 63 326 6.1 7.0 0.00 0.02 0.02 55 577.1
20260905113603 63 349 6.1 7.0 0.00 0.02 0.02 53 577.0
20260905112703 63 339 6.1 7.0 0.00 0.02 0.02 54 576.9
20260905112017 63 353 7.0 9.6 0.00 0.02 0.02 54 576.9
20260905110903 64 343 7.8 9.6 0.00 0.02 0.02 51 576.8
20260905110003 64 348 7.0 8.7 0.00 0.02 0.02 52 576.6
20260905105403 64 356 7.8 8.7 0.00 0.02 0.02 51 576.6
20260905104717 64 356 7.0 8.7 0.00 0.02 0.02 53 576.6
20260905103818 64 1 7.8 10.4 0.00 0.02 0.02 55 576.4
20260905102705 64 357 7.0 9.6 0.00 0.02 0.02 55 576.1
20260905101804 64 16 4.3 8.7 0.00 0.02 0.02 54 576.0
20260905100903 63 359 5.2 6.1 0.00 0.02 0.02 55 576.1
20260905100004 63 12 4.3 6.1 0.00 0.02 0.02 58 576.0
20260905095617 62 25 4.3 7.0 0.00 0.02 0.02 60 576.0
20260905094503 62 52 5.2 7.0 0.00 0.05 0.02 56 575.9
20260905093603 62 42 5.2 6.1 0.00 0.08 0.02 57 576.0
20260905092917 62 52 4.3 7.0 0.00 0.08 0.02 59 575.8
20260905091803 61 36 4.3 5.2 0.00 0.08 0.02 58 575.9
20260905090904 61 26 3.5 4.3 0.00 0.08 0.02 63 575.8
20260905090004 60 39 4.3 5.2 0.00 0.08 0.02 61 575.6
20260905085403 60 49 4.3 5.2 0.00 0.08 0.02 62 575.6
20260905084506 60 48 4.3 6.1 0.00 0.08 0.02 64 575.4
20260905083604 60 49 4.3 5.2 0.00 0.08 0.02 67 575.4
20260905082917 59 45 5.2 7.0 0.00 0.08 0.02 65 575.4
20260905081804 60 20 6.1 7.8 0.00 0.08 0.02 63 575.3
20260905080904 60 9 6.1 6.1 0.00 0.08 0.02 65 575.3
20260905080217 60 19 5.2 7.0 0.00 0.08 0.02 68 575.3
20260905075403 60 30 6.1 7.0 0.00 0.08 0.02 70 575.2
20260905074503 59 27 6.1 7.0 0.00 0.08 0.02 77 575.0
20260905073603 59 17 6.1 7.0 0.00 0.08 0.02 78 574.9
20260905072918 58 38 4.3 6.1 0.00 0.08 0.02 79 575.0
20260905071803 58 45 4.3 6.1 0.00 0.08 0.02 79 574.9
20260905070903 58 45 5.2 5.2 0.00 0.08 0.02 79 574.8
20260905070004 57 38 5.2 6.1 0.00 0.08 0.02 83 574.9
20260905065403 57 27 4.3 6.1 0.00 0.08 0.02 85 574.7
20260905064503 57 16 5.2 5.2 0.00 0.09 0.02 87 574.7
20260905063817 58 2 5.2 7.0 0.00 0.09 0.02 88 574.7
20260905062703 57 3 5.2 6.1 0.00 0.09 0.02 90 574.4
20260905061803 56 16 4.3 6.1 0.00 0.09 0.02 90 574.5
20260905060903 56 5 5.2 6.1 0.00 0.09 0.02 91 574.4
20260905060004 56 5 4.3 5.2 0.00 0.09 0.02 91 574.4
20260905055403 56 13 4.3 5.2 0.00 0.09 0.02 91 574.4
20260905054503 55 30 3.5 4.3 0.00 0.09 0.02 92 574.4
20260905053603 55 37 3.5 4.3 0.00 0.09 0.02 92 574.2
20260905052918 55 20 3.5 4.3 0.00 0.09 0.02 92 574.3